Location: Selby
(38.0566°N, 122.2439°W)
Time: 07:25:25
(UTC+00:00)

Cosmos 1455 Rocket - Pass Details

Date: 22 May 2024
Orbit: 602 x 625 km, 82.5° (Epoch: 13 June)

Event Time Altitude Azimuth Distance (km) Brightness Sun altitude
Rises 12:07:18 0° 355° (N) 2,878 6.9 -8.5°
Reaches altitude 10° 12:09:31 10° 357° (N) 1,973 6.1 -8.1°
Maximum altitude 12:13:53 73° 82° (E) 646 3.4 -7.4°
Drops below altitude 10° 12:18:15 10° 167° (SSE) 1,973 5.4 -6.7°
Sets 12:20:28 0° 170° (S) 2,878 6.3 -6.3°
